Погода в Ла-Пунта

Аргентина     28°22′17″S   64°47′25″W
темп.,
°C
ветер,
м/с
пор.,
м/с
влажн.,
%
обл.,
%
осадки,
мм/ч
давл.,
гПа
погр.,
м
24 января, пн
пн2400:00+21ююз129381 0.6 101131
03:00+21вюв1195100 5.5 101046
06:00+21всв2396100 3.9 1010149
09:00+22вюв2297100 7.8 1011171
12:00+25вюв338095 0.1 1010691
15:00+30всв465692 0.0 10081548
18:00+25ссз138394 2.5 1006104
21:00+22з479595 7.3 1007169
25 января, вт
вт2500:00+23ю249396 1.3 100884
03:00+23ююв2597100 1.4 1007207
06:00+23зсз1196100 0.4 100737
09:00+23ююв1296100 1.6 1007111
12:00+26вюв228441 0.0 1007423
15:00+31в545795 0.4 10041320
18:00+30всв4560100 0.8 10021002
21:00+27юв2473100 0.8 100367
26 января, ср
ср2600:00+24вюв3985100 0.0 1005338
03:00+23ююв2291100 0.1 100571
06:00+22зюз2396100 2.4 1006114
09:00+25юв338750 3.1 1009396
12:00+30вюв4363100 0.0 10091097
15:00+32ююв445366 0.1 10071552
18:00+30юв366395 2.2 1005909
21:00+25ссв0187100 12.9 100927
27 января, чт
чт2700:00+24вюв41188100 12.4 1012473
03:00+23ююв41092100 20.4 1011393
06:00+22ююв71289100 8.9 1013540
09:00+22ююв71190100 11.3 1015796
12:00+23юв7987100 2.1 1016914
15:00+23юв5883100 2.7 1016821
18:00+24юв577682 0.3 1014881
21:00+21вюв2684100 0.4 1015310
28 января, пт
пт2800:00+21юв2681100 0.0 1016258
03:00+21ю137693 0.0 1014179
06:00+19юв128219 0.0 1013133
09:00+22в23705 0.0 1014479
12:00+26в335410 0.0 10121172
15:00+28всв334838 0.0 10091604
18:00+29всв334820 0.0 10071653
21:00+24с22610 0.0 100818